Theta_e
313 319 317 318 318 318 318 318 318 319 319 319 319 319 319 318 319 318 318 319 320 322 323 322 322 321 321 321 320 320 320 321 321 323 325 327 331 333 336 339 342 345 346
315 318 316 317 317 317 317 318 318 318 318 318 318 318 318 317 317 316 317 318 319 320 321 321 320 320 320 319 318 318 318 318 318 319 321 324 325 328 331 334 339 343 345
314 317 317 315 317 316 317 317 316 316 316 316 317 317 316 315 315 315 315 316 317 318 319 320 320 320 319 317 316 316 316 316 315 316 317 322 323 320 324 329 333 338 342
314 316 317 314 315 315 316 315 315 314 315 314 315 314 315 314 314 313 313 313 314 316 317 317 317 317 316 315 314 314 314 314 313 314 314 315 316 315 317 323 329 336 339
312 316 317 315 314 314 314 314 313 312 313 313 313 312 313 313 313 312 311 311 312 313 313 314 315 314 312 312 312 312 312 312 312 313 312 311 311 310 314 320 327 332 335
312 314 314 314 314 312 312 313 311 311 311 312 311 310 310 311 310 310 309 309 310 311 311 311 311 310 310 310 310 310 310 310 310 311 311 309 308 308 313 317 323 327 331
312 314 313 311 311 310 311 312 310 310 309 310 310 309 308 309 308 308 307 307 308 309 308 309 308 308 308 308 308 308 308 308 308 309 310 307 307 306 312 315 319 323 327
311 313 313 311 309 311 309 309 309 308 308 309 308 307 307 306 306 306 305 305 306 306 306 307 306 306 306 306 307 306 306 306 306 308 308 305 305 305 312 314 316 320 325
312 312 312 310 309 309 308 309 308 307 308 307 306 305 304 303 303 303 303 303 304 304 305 305 305 305 305 305 305 304 303 304 305 306 303 303 303 306 311 313 314 317 322
313 312 311 310 309 309 311 307 307 308 307 305 304 303 302 301 302 302 301 302 302 302 303 303 303 303 303 303 302 301 302 303 304 303 302 303 302 306 310 312 314 315 319
311 311 311 310 309 309 308 307 306 306 303 301 301 301 303 303 303 302 300 300 301 300 301 300 301 301 301 301 299 299 300 301 301 302 302 301 301 306 309 311 312 314 318
309 310 310 310 309 310 307 308 309 307 306 305 305 304 303 303 302 300 299 298 299 299 299 298 299 299 299 300 300 300 301 301 301 301 302 301 302 305 308 310 311 313 315
309 310 308 309 310 307 307 306 306 306 305 306 304 303 303 301 301 300 299 299 300 299 299 299 299 299 299 299 298 299 299 300 300 301 301 300 302 305 307 309 310 312 314
309 309 306 306 309 308 306 305 305 304 304 303 302 302 301 299 299 299 298 299 299 299 299 299 298 297 297 298 298 298 298 298 299 300 301 300 301 303 306 308 310 311 313
308 309 306 305 307 308 307 305 304 303 303 302 301 301 300 298 298 298 298 298 298 298 298 297 295 295 296 296 296 297 298 299 300 300 301 301 301 302 305 307 309 311 312
309 308 307 304 306 307 305 304 303 304 302 301 300 300 299 299 298 297 297 297 297 298 296 293 294 294 295 296 296 298 298 299 300 301 301 302 301 301 303 305 307 309 311
309 308 306 306 305 305 303 303 303 302 301 300 299 300 299 299 298 298 297 297 297 296 292 293 293 294 294 296 296 296 298 300 300 300 301 302 302 302 301 303 304 306 308
309 307 306 304 304 304 304 303 302 302 301 299 298 298 298 298 297 297 296 296 297 292 291 292 291 292 292 292 294 295 297 299 300 300 301 301 302 302 302 302 303 304 306
308 307 305 304 302 302 303 302 302 301 300 299 298 297 297 296 296 296 296 296 295 292 293 292 292 291 290 291 291 294 296 297 299 299 300 301 302 303 304 304 303 303 304
308 306 305 305 303 303 304 303 301 300 300 299 297 296 296 296 295 296 296 296 294 293 292 291 290 290 289 290 290 291 294 297 298 299 299 300 302 304 304 305 305 305 304
306 305 304 303 303 303 301 298 298 297 298 297 297 297 296 296 295 294 295 295 294 291 290 290 289 288 288 290 288 289 293 296 298 299 300 300 301 301 304 305 306 306 306
305 304 303 302 302 301 300 299 298 297 297 297 297 297 296 295 295 293 294 294 293 290 289 289 287 287 287 290 287 286 287 293 295 298 298 298 300 301 303 304 306 307 308
304 303 302 301 300 300 299 299 298 298 297 296 296 295 296 295 295 294 294 294 292 291 288 288 288 286 285 288 289 286 283 286 290 294 296 298 299 300 301 304 305 306 308
304 304 303 301 300 299 299 297 296 294 293 294 295 295 295 295 294 294 293 294 292 291 289 288 288 288 288 286 288 288 289 289 284 285 293 296 298 298 299 303 305 306 307
303 303 302 300 299 298 298 297 296 295 294 295 295 294 294 294 294 292 293 294 293 291 290 288 287 288 288 287 287 286 286 286 288 285 283 289 295 298 299 301 304 305 307
303 303 301 299 298 297 297 297 296 295 294 293 293 292 292 292 292 292 293 293 293 292 289 288 288 289 289 288 288 287 286 285 286 286 285 287 290 295 298 302 304 306 308
Wind_Speed
5 9 5 6 6 6 5 6 8 9 10 11 12 13 14 14 15 16 16 16 16 16 15 14 14 13 14 16 16 17 17 18 18 18 17 17 12 12 13 17 16 11 10
8 7 5 5 6 5 6 6 7 8 9 10 12 12 13 15 15 15 16 16 16 16 16 14 14 13 14 15 16 17 17 17 17 17 18 16 6 12 14 16 16 13 13
8 7 8 3 6 4 5 7 7 7 8 9 11 12 13 14 15 15 16 16 16 15 15 15 14 14 14 15 16 16 16 17 17 18 17 10 9 8 11 14 16 14 13
8 6 6 4 5 5 5 6 6 6 7 8 10 12 11 13 14 15 15 15 15 17 17 17 17 16 17 17 16 16 16 16 17 18 10 8 9 7 11 13 15 15 14
7 6 10 5 5 5 4 5 6 6 6 7 9 10 11 12 14 15 15 16 16 16 17 17 17 18 17 17 17 16 16 16 17 19 9 9 9 6 13 13 13 14 14
9 7 9 6 6 5 4 5 6 6 6 6 8 9 11 12 13 15 16 16 16 16 17 17 16 16 16 16 16 16 16 17 18 13 8 9 9 10 13 13 12 14 15
9 7 11 5 6 4 4 5 6 7 6 6 7 8 10 12 12 15 16 16 16 16 16 16 16 16 16 16 16 16 16 17 15 13 9 8 8 10 14 12 12 13 15
9 7 7 9 5 7 5 4 7 7 5 6 7 8 10 12 13 14 15 14 16 16 16 15 15 15 15 16 17 17 17 18 15 13 10 9 8 11 15 14 13 13 13
8 7 6 6 6 6 6 7 7 5 6 7 7 8 9 10 12 11 14 14 16 15 15 15 15 15 16 16 16 17 17 18 15 10 9 8 5 12 15 14 14 13 14
7 6 5 5 5 4 4 6 5 5 6 7 7 8 8 9 10 12 12 15 15 15 15 15 15 16 16 16 13 13 16 19 15 9 9 7 9 14 16 15 14 14 14
7 6 5 4 4 4 4 5 2 5 3 2 4 6 10 8 10 13 12 14 14 14 14 13 15 15 16 15 10 10 13 7 8 8 7 7 10 15 16 15 15 14 14
8 7 5 3 4 3 3 4 3 3 5 6 7 9 7 9 8 10 11 12 13 13 14 12 13 13 11 9 8 10 6 9 9 9 7 10 13 15 16 16 15 14 15
8 6 5 4 3 4 5 4 3 3 4 3 5 8 9 8 7 7 7 7 8 10 7 11 10 8 12 9 9 9 10 11 7 7 10 12 15 16 16 16 15 15 16
8 7 5 5 3 4 4 5 4 4 5 4 6 7 9 7 8 8 6 9 8 7 10 9 7 11 11 11 12 11 10 10 8 7 10 14 15 16 16 17 16 16 16
9 7 5 4 3 3 3 4 5 5 4 6 5 7 8 9 8 9 8 8 8 8 9 9 9 9 10 11 11 12 12 12 12 8 8 15 15 17 17 16 16 16 16
8 8 6 5 3 3 4 5 5 4 4 5 6 7 9 9 8 9 8 8 8 8 9 9 9 10 10 11 13 11 13 12 12 12 10 11 15 16 17 17 16 17 17
9 9 7 6 3 2 3 5 4 4 5 5 6 7 9 9 10 10 8 8 8 9 10 9 10 10 10 11 12 13 13 13 11 12 11 10 11 15 16 16 16 16 17
9 9 7 4 3 1 4 4 4 3 5 5 6 6 9 9 10 10 8 8 8 7 7 8 8 9 10 10 11 11 11 13 13 13 12 11 10 9 10 15 15 15 17
10 9 7 5 3 1 2 4 4 4 5 5 5 6 9 9 10 10 8 8 9 7 7 8 9 9 10 10 11 12 12 12 13 11 13 12 12 11 9 11 14 14 17
10 8 7 5 2 2 4 3 3 4 4 4 5 6 8 8 10 10 8 9 7 8 8 8 11 11 11 11 11 12 14 13 12 12 12 11 12 11 11 12 10 10 19
10 9 7 6 2 4 5 6 6 5 5 5 5 7 9 9 10 11 8 9 8 8 10 11 10 13 10 10 9 10 13 15 13 10 9 8 10 12 11 12 9 8 9
11 9 7 5 2 5 5 5 5 6 6 6 6 7 8 10 10 10 10 10 10 9 11 11 10 10 10 10 6 9 9 7 5 9 7 10 13 10 11 12 13 12 10
11 9 6 4 4 6 7 5 5 5 5 5 7 7 9 9 10 10 11 11 10 10 9 10 11 12 10 10 10 5 5 7 9 9 7 7 9 8 9 12 12 13 13
10 8 7 5 4 5 7 6 7 7 8 7 8 8 9 9 11 11 11 12 11 9 11 9 9 10 10 11 9 8 11 9 5 8 6 6 8 10 12 10 11 13 14
10 8 6 5 5 6 6 7 7 8 8 8 8 11 10 10 11 11 11 13 12 9 11 12 12 12 10 9 9 8 9 9 12 10 10 10 9 8 10 11 11 12 15
10 8 6 4 6 6 6 7 8 9 10 9 11 10 10 10 10 11 13 13 13 12 12 12 12 14 12 11 9 10 9 7 8 9 10 11 12 9 9 10 11 11 12
Wind_Direction
118 104 99 90 84 77 69 61 56 53 49 44 36 34 34 29 25 17 12 10 7 3 3 7 6 12 11 7 3 0 357 355 351 346 340 339 334 349 348 343 336 324 333
120 117 108 84 90 72 73 64 58 52 48 47 39 37 33 28 22 18 14 10 5 1 358 358 360 3 5 1 355 350 349 347 343 337 333 311 299 356 350 331 330 338 340
122 121 134 70 88 78 77 62 56 48 49 41 41 34 33 26 22 18 11 6 1 356 358 355 356 356 354 351 346 343 342 340 338 332 321 285 321 338 343 328 325 323 325
120 126 142 128 88 91 85 74 57 42 49 44 42 30 29 24 19 15 8 3 359 359 353 346 342 344 343 341 339 336 336 336 334 327 305 328 325 330 336 321 319 325 333
126 130 96 100 90 74 70 77 42 35 46 41 40 28 22 19 13 10 4 357 355 353 349 343 341 343 336 333 332 330 332 332 329 298 325 326 334 326 329 324 317 317 333
118 110 111 96 72 59 57 73 41 39 35 45 39 24 18 12 9 4 0 353 351 349 345 339 340 335 332 333 329 330 330 328 320 313 315 315 299 351 319 319 318 325 321
111 110 104 80 63 63 67 76 37 35 25 43 33 19 12 6 6 359 354 349 346 344 340 335 335 329 327 326 325 326 327 323 309 302 307 304 299 329 317 315 315 318 325
108 101 98 93 68 79 56 57 37 19 31 35 20 15 10 3 359 351 348 344 343 341 337 339 333 328 325 321 321 321 322 318 306 305 302 297 316 318 316 314 312 311 317
116 101 82 67 94 85 49 53 31 22 48 31 24 19 9 357 350 341 340 344 340 338 335 337 332 327 322 319 318 317 314 313 304 292 296 287 9 316 311 309 306 307 310
125 113 95 77 57 40 85 55 31 57 54 38 25 14 350 311 344 347 332 354 337 336 334 333 330 326 319 316 308 306 309 301 270 301 281 278 325 307 306 304 304 303 301
151 134 99 82 60 34 52 71 139 93 80 351 346 20 314 344 330 338 344 335 332 332 332 328 326 324 317 292 299 301 298 277 303 292 288 306 301 300 302 300 299 297 299
161 148 125 91 47 26 33 11 27 20 14 1 354 343 330 335 334 320 322 324 319 329 321 329 320 314 298 324 317 305 309 314 291 283 281 299 292 294 295 293 290 290 289
155 142 125 106 51 355 32 351 12 358 346 356 350 345 332 325 338 331 328 333 333 332 328 326 324 326 336 323 317 309 312 301 293 288 282 288 286 288 289 285 282 282 283
162 144 129 95 93 33 348 9 353 349 349 349 358 346 333 330 335 336 331 330 326 330 326 325 330 334 314 309 307 302 294 287 284 291 282 271 278 282 282 280 277 275 277
166 147 137 130 96 48 352 6 357 345 5 345 338 354 336 330 336 329 330 324 326 327 324 337 321 312 310 304 296 284 283 282 278 275 278 279 271 274 276 276 275 271 270
164 155 144 131 96 52 21 5 344 358 343 335 337 355 336 329 336 326 325 327 324 326 346 320 314 309 306 299 282 297 298 287 280 279 277 278 273 270 271 271 269 269 267
172 146 153 137 118 44 357 351 344 6 318 337 338 340 339 332 332 327 321 322 325 348 321 305 309 308 300 295 313 292 284 279 274 271 267 269 274 249 254 258 262 262 260
164 158 154 138 146 52 7 349 343 353 328 338 340 338 350 332 334 322 319 322 350 325 303 302 301 302 302 299 298 295 289 282 281 274 266 264 263 266 245 232 248 256 257
155 154 150 151 172 343 2 337 333 343 313 339 335 344 348 331 335 322 318 325 343 299 305 304 309 302 302 299 295 289 290 284 274 268 267 258 254 257 259 238 236 251 249
147 155 149 167 164 280 298 284 281 291 314 320 331 346 332 339 335 327 325 328 323 312 312 312 305 304 298 297 294 297 288 275 274 261 256 250 247 244 256 256 248 225 228
151 156 161 164 156 325 344 339 337 332 323 326 328 329 328 339 340 331 327 323 324 314 310 303 306 302 298 294 294 285 288 271 249 245 246 261 241 251 247 242 232 240 208
160 153 154 142 65 6 357 349 335 327 329 330 305 315 325 333 332 327 325 325 326 313 304 304 298 295 291 291 291 293 287 300 193 221 264 251 249 237 242 237 241 230 232
161 157 153 124 49 26 358 352 336 313 308 322 333 325 337 330 326 329 323 319 317 305 304 302 298 292 291 290 280 269 282 270 350 273 217 239 244 229 245 242 237 229 228
152 146 137 101 45 42 11 1 348 337 335 337 322 329 323 333 328 329 321 316 307 309 302 298 292 288 281 282 280 261 250 260 278 290 279 238 229 250 234 238 223 229 224
151 146 123 107 60 42 25 0 346 350 340 333 335 334 341 338 334 328 321 314 315 314 310 309 301 287 279 276 278 270 256 249 252 253 264 267 242 241 246 231 234 225 218
144 135 132 104 65 39 15 9 356 344 338 338 347 342 343 337 333 329 328 320 318 321 323 310 298 289 284 276 268 259 253 248 238 242 243 256 263 274 260 238 218 221 212